Simultaneous Nadir Overpasses (SNOs) Predictions

Prediction of SNOs between AQUA and NPP Satellite Orbit:

Table of predicted SNOs for the next 14.0 days since TLE Epoch: 4/8/2023
Index Date (AQUA) Time (AQUA) Lat,Lon (AQUA) SZA (AQUA ) Date (NPP) Time (NPP) Lat,Lon (NPP) SZA (NPP ) Distance(km) Time Diff (sec)
1 04/09/2023 08:23:30 -79.62, 133.07 95.35 04/09/2023 08:23:00 -79.62, 132.98 95.31 2.08 30
2 04/09/2023 09:12:46 79.91, -57.04 84.20 04/09/2023 09:13:35 79.91, -56.96 84.15 1.59 49
3 04/11/2023 22:58:58 -79.65, -85.55 96.38 04/11/2023 22:58:25 -79.65, -85.56 96.35 0.30 33
4 04/11/2023 23:48:17 79.83, 83.47 83.34 04/11/2023 23:49:04 79.82, 83.32 83.34 2.92 47
5 04/14/2023 13:34:25 -79.71, 56.05 97.43 04/14/2023 13:33:50 -79.71, 56.13 97.42 1.68 35
6 04/14/2023 14:23:44 79.88,-134.94 82.29 04/14/2023 14:24:29 79.88,-134.98 82.27 0.88 45
7 04/17/2023 04:09:55 -79.62,-163.50 98.24 04/17/2023 04:09:20 -79.61,-163.62 98.19 2.54 35
8 04/17/2023 04:59:11 79.90, 6.31 81.33 04/17/2023 04:59:55 79.90, 6.38 81.29 1.40 44
9 04/19/2023 18:45:19 -79.70, -21.74 99.28 04/19/2023 18:44:44 -79.69, -21.74 99.25 0.28 35



Historial Predications of SNOs between AQUA and NPP
